Change the Weather History Date:

Saturday, July 13, 2013

  Actual Average (KFWN) Record (KFWN)
Temperature  
Mean Temperature 72 °F -  
Max Temperature 78 °F 82 °F 96 °F (1966)
Min Temperature 66 °F 57 °F 46 °F (1970)
Cooling Degree Days 7    
Growing Degree Days 22 (Base 50)    
Moisture  
Dew Point 68 °F    
Average Humidity 90    
Maximum Humidity 96    
Minimum Humidity 79    
Precipitation  
Precipitation 0.03 in - - ()
Sea Level Pressure  
Sea Level Pressure 30.22 in    
Wind  
Wind Speed 4 mph (NNE)    
Max Wind Speed 7 mph    
Max Gust Speed -    
Averages and records for this station are not official NWS values.
T = Trace of Precipitation, MM = Missing Value Source: NWS Daily Summary

Daily Weather History Graph

Daily Weather History Graph

Search for Another Location

Airport or City:

Trip Planner

Search our weather history database for the weather conditions in past years. The results will help you decide how hot, cold, wet, or windy it might be!

Date:

Astronomy

Jul. 13, 2013 Rise Set
Actual Time 5:38 AM EDT 8:30 PM EDT
Civil Twilight 5:05 AM EDT 9:03 PM EDT
Nautical Twilight 4:24 AM EDT 9:44 PM EDT
Astronomical Twilight 3:36 AM EDT 10:32 PM EDT
Moon 10:55 AM EDT (7/13) 11:06 PM EDT (7/13)
Length of Visible Light 15h 57m
Length of Day
14h 52m
Waxing Crescent, 25% of the Moon is Illuminated
Jul 13
Waxing Crescent
Jul 15
First Quarter
Jul 22
Full
Jul 29
Last Quarter
Aug 6
New

Hourly Weather History & Observations

Time (EDT) Temp. Dew Point Humidity Pressure Visibility Wind Dir Wind Speed Gust Speed Precip Events Conditions
12:54 AM 68.0 °F 64.9 °F 90% 30.11 in - Variable 5.8 mph - N/A   Unknown
1:54 AM 66.9 °F 64.0 °F 90% 30.12 in - Variable 4.6 mph - N/A   Unknown
2:54 AM 66.9 °F 64.0 °F 90% 30.11 in - Variable 4.6 mph - N/A   Unknown
3:54 AM 66.0 °F 64.9 °F 96% 30.12 in - Variable 3.5 mph - N/A   Unknown
4:54 AM 66.0 °F 64.0 °F 93% 30.14 in - Variable 3.5 mph - N/A   Unknown
5:54 AM 66.0 °F 64.0 °F 93% 30.17 in - North 3.5 mph - N/A   Unknown
6:54 AM 66.0 °F 64.0 °F 93% 30.18 in - Variable 5.8 mph - 0.02 in   Unknown
7:54 AM 66.0 °F 64.0 °F 93% 30.20 in - NE 6.9 mph - N/A   Unknown
8:54 AM 66.0 °F 64.0 °F 93% 30.23 in - Variable 4.6 mph - N/A   Unknown
9:54 AM 66.9 °F 64.9 °F 93% 30.24 in - North 4.6 mph - N/A   Unknown
10:54 AM 68.0 °F 66.0 °F 93% 30.24 in - NE 3.5 mph - N/A   Unknown
11:54 AM 69.1 °F 66.9 °F 93% 30.24 in - Variable 3.5 mph - 0.01 in   Unknown
12:54 PM 70.0 °F 66.9 °F 90% 30.25 in - NE 4.6 mph - N/A   Unknown
1:54 PM 71.1 °F 68.0 °F 90% 30.25 in - NE 6.9 mph - N/A   Unknown
2:54 PM 73.0 °F 69.1 °F 87% 30.25 in - NE 5.8 mph - N/A   Unknown
3:54 PM 75.0 °F 70.0 °F 84% 30.25 in - Variable 3.5 mph - N/A   Unknown
4:54 PM 78.1 °F 71.1 °F 79% 30.24 in - North 3.5 mph - N/A   Unknown
5:54 PM 78.1 °F 72.0 °F 81% 30.24 in - Variable 3.5 mph - N/A   Unknown
6:54 PM 77.0 °F 72.0 °F 84% 30.25 in - Calm Calm - N/A   Unknown
7:54 PM 77.0 °F 72.0 °F 84% 30.26 in - Calm Calm - N/A   Unknown
8:54 PM 73.9 °F 72.0 °F 93% 30.27 in - Calm Calm - N/A   Unknown
9:54 PM 73.0 °F 71.1 °F 93% 30.28 in - Calm Calm - N/A   Unknown
10:54 PM 73.0 °F 71.1 °F 93% 30.29 in - Calm Calm - N/A   Unknown
11:54 PM 73.0 °F 71.1 °F 93% 30.29 in - Calm Calm - N/A   Unknown